When you browse on this site, cookies collect data to enhance your experience and personalize the content and advertising you see.
Visit our Privacy Policy to learn more. By continuing to use the site, you agree to this use of cookies and data.
  • In Austria
  • List of Countries
  • For 7 days
  • Water Temperature
  • Satellite Maps
  • Weather Map
  • News
  • Weather Widgets
  • user-avatar
    Login

    Hourly Weather Cottage Lake

    Today, 20 April, Saturday

    Time Temperature Precipitation Wind Pressure Humidity
    00:00 +9°C° 0 mm 1 mps 751 mmHg 95%
    01:00 +9°C° 0 mm 1 mps 751 mmHg 95%
    02:00 +8°C° 0 mm 1 mps 751 mmHg 95%
    03:00 +8°C° 0 mm 1 mps 752 mmHg 95%
    04:00 +8°C° 0 mm 1 mps 752 mmHg 96%
    05:00 +8°C° 0 mm 1 mps 752 mmHg 94%
    06:00 +9°C° 0 mm 1 mps 752 mmHg 92%
    07:00 +10°C° 0 mm 1 mps 752 mmHg 91%
    08:00 +10°C° 0 mm 1 mps 752 mmHg 88%
    09:00 +11°C° 0 mm 1 mps 752 mmHg 85%
    10:00 +11°C° 0 mm 1 mps 752 mmHg 81%
    11:00 +12°C° 0 mm 1 mps 752 mmHg 76%
    12:00 +13°C° 0 mm 1 mps 752 mmHg 71%
    13:00 +14°C° 0 mm 1 mps 752 mmHg 66%
    14:00 +15°C° 0 mm 1 mps 752 mmHg 63%
    15:00 +16°C° 0 mm 1 mps 752 mmHg 60%
    16:00 +16°C° 0 mm 1 mps 752 mmHg 57%
    17:00 +15°C° 0 mm 1 mps 753 mmHg 64%
    18:00 +13°C° 0 mm 1 mps 753 mmHg 71%
    19:00 +10°C° 0 mm 0 mps 753 mmHg 78%
    20:00 +9°C° 0 mm 0 mps 754 mmHg 80%
    21:00 +10°C° 0 mm 1 mps 755 mmHg 82%
    22:00 +9°C° 0 mm 1 mps 755 mmHg 84%
    23:00 +9°C° 0 mm 1 mps 756 mmHg 85%

    Tomorrow, 21 April, Sunday

    Time Temperature Precipitation Wind Pressure Humidity
    00:00 +9°C° 0 mm 1 mps 756 mmHg 87%
    01:00 +9°C° 0 mm 1 mps 756 mmHg 88%
    02:00 +8°C° 0 mm 1 mps 757 mmHg 89%
    03:00 +8°C° 0 mm 1 mps 757 mmHg 91%
    04:00 +8°C° 0 mm 1 mps 757 mmHg 93%
    05:00 +7°C° 0 mm 2 mps 757 mmHg 89%
    06:00 +8°C° 0 mm 2 mps 758 mmHg 86%
    07:00 +8°C° 0 mm 2 mps 758 mmHg 83%
    08:00 +10°C° 0 mm 2 mps 758 mmHg 75%
    09:00 +12°C° 0 mm 2 mps 758 mmHg 67%
    10:00 +14°C° 0 mm 2 mps 758 mmHg 59%
    11:00 +15°C° 0 mm 2 mps 758 mmHg 54%
    12:00 +17°C° 0 mm 2 mps 758 mmHg 49%
    13:00 +19°C° 0 mm 1 mps 758 mmHg 45%
    14:00 +19°C° 0 mm 1 mps 758 mmHg 44%
    15:00 +19°C° 0 mm 1 mps 758 mmHg 44%
    16:00 +19°C° 0 mm 1 mps 758 mmHg 43%
    17:00 +16°C° 0 mm 1 mps 758 mmHg 51%
    18:00 +14°C° 0 mm 1 mps 758 mmHg 59%
    19:00 +12°C° 0 mm 1 mps 758 mmHg 67%
    20:00 +11°C° 0 mm 1 mps 759 mmHg 70%
    21:00 +10°C° 0 mm 1 mps 759 mmHg 73%
    22:00 +9°C° 0 mm 1 mps 759 mmHg 76%
    23:00 +9°C° 0 mm 1 mps 759 mmHg 79%

    Day after tomorrow, 22 April, Monday

    Time Temperature Precipitation Wind Pressure Humidity
    00:00 +8°C° 0 mm 1 mps 759 mmHg 82%
    01:00 +8°C° 0 mm 1 mps 760 mmHg 85%
    02:00 +8°C° 0 mm 1 mps 760 mmHg 85%
    03:00 +6°C° 0 mm 2 mps 759 mmHg 84%
    04:00 +6°C° 0 mm 2 mps 759 mmHg 84%
    05:00 +7°C° 0 mm 2 mps 760 mmHg 79%
    06:00 +8°C° 0 mm 2 mps 760 mmHg 74%
    07:00 +9°C° 0 mm 2 mps 760 mmHg 68%
    08:00 +12°C° 0 mm 2 mps 760 mmHg 61%
    09:00 +12°C° 0 mm 3 mps 759 mmHg 54%
    10:00 +13°C° 0 mm 3 mps 759 mmHg 46%
    11:00 +14°C° 0 mm 3 mps 759 mmHg 48%
    12:00 +14°C° 0 mm 3 mps 759 mmHg 49%
    13:00 +14°C° 0 mm 3 mps 759 mmHg 50%
    14:00 +14°C° 0 mm 3 mps 759 mmHg 55%
    15:00 +13°C° 0 mm 3 mps 758 mmHg 59%
    16:00 +13°C° 0 mm 3 mps 758 mmHg 64%
    17:00 +12°C° 0 mm 3 mps 758 mmHg 67%
    18:00 +13°C° 0 mm 2 mps 758 mmHg 70%
    19:00 +12°C° 0 mm 2 mps 758 mmHg 73%
    20:00 +12°C° 0.1 mm 2 mps 758 mmHg 76%
    21:00 +12°C° 0.1 mm 2 mps 758 mmHg 79%
    22:00 +10°C° 0.1 mm 2 mps 758 mmHg 82%
    23:00 +12°C° 0.2 mm 2 mps 758 mmHg 85%

    23 April, Tuesday

    Time Temperature Precipitation Wind Pressure Humidity
    00:00 +12°C° 0.2 mm 2 mps 757 mmHg 87%
    01:00 +12°C° 0.2 mm 2 mps 757 mmHg 90%
    02:00 +12°C° 0.5 mm 2 mps 757 mmHg 92%
    03:00 +12°C° 0.5 mm 2 mps 757 mmHg 94%
    04:00 +12°C° 0.5 mm 2 mps 757 mmHg 95%
    05:00 +12°C° 0.4 mm 2 mps 757 mmHg 95%
    06:00 +12°C° 0.4 mm 2 mps 757 mmHg 96%
    07:00 +13°C° 0.4 mm 2 mps 757 mmHg 96%
    08:00 +13°C° 0 mm 2 mps 757 mmHg 94%
    09:00 +14°C° 0 mm 2 mps 757 mmHg 93%
    10:00 +15°C° 0 mm 2 mps 757 mmHg 91%
    11:00 +16°C° 0.1 mm 2 mps 757 mmHg 88%
    12:00 +16°C° 0.1 mm 3 mps 757 mmHg 85%
    13:00 +17°C° 0.1 mm 3 mps 756 mmHg 83%
    14:00 +17°C° 0.3 mm 3 mps 756 mmHg 82%
    15:00 +17°C° 0.3 mm 3 mps 756 mmHg 81%
    16:00 +17°C° 0.3 mm 3 mps 756 mmHg 80%
    17:00 +16°C° 0.4 mm 3 mps 756 mmHg 85%
    18:00 +15°C° 0.4 mm 2 mps 756 mmHg 90%
    19:00 +14°C° 0.4 mm 1 mps 756 mmHg 95%
    20:00 +14°C° 0.4 mm 1 mps 756 mmHg 96%
    21:00 +14°C° 0.4 mm 1 mps 756 mmHg 97%
    22:00 +13°C° 0.4 mm 1 mps 756 mmHg 97%
    23:00 +13°C° 0.3 mm 1 mps 756 mmHg 97%

    24 April, Wednesday

    Time Temperature Precipitation Wind Pressure Humidity
    00:00 +13°C° 0.3 mm 1 mps 756 mmHg 98%
    01:00 +13°C° 0.3 mm 1 mps 756 mmHg 98%
    02:00 +13°C° 0.2 mm 1 mps 756 mmHg 98%
    03:00 +13°C° 0.2 mm 1 mps 756 mmHg 98%
    04:00 +12°C° 0.2 mm 0 mps 757 mmHg 99%
    05:00 +12°C° 0.3 mm 0 mps 757 mmHg 98%
    06:00 +11°C° 0.3 mm 0 mps 757 mmHg 98%
    07:00 +11°C° 0.3 mm 0 mps 757 mmHg 97%
    08:00 +13°C° 0.1 mm 1 mps 757 mmHg 93%
    09:00 +14°C° 0.1 mm 1 mps 758 mmHg 89%
    10:00 +14°C° 0.1 mm 1 mps 758 mmHg 86%
    11:00 +15°C° 0.1 mm 1 mps 758 mmHg 78%
    12:00 +16°C° 0.1 mm 1 mps 758 mmHg 71%
    13:00 +19°C° 0.1 mm 1 mps 757 mmHg 64%
    14:00 +19°C° 0 mm 1 mps 757 mmHg 61%
    15:00 +19°C° 0 mm 1 mps 757 mmHg 58%
    16:00 +19°C° 0 mm 2 mps 757 mmHg 55%
    17:00 +18°C° 0 mm 1 mps 757 mmHg 63%
    18:00 +15°C° 0 mm 1 mps 757 mmHg 70%
    19:00 +13°C° 0 mm 1 mps 757 mmHg 78%
    20:00 +12°C° 0 mm 1 mps 757 mmHg 79%
    21:00 +12°C° 0 mm 1 mps 757 mmHg 80%
    22:00 +11°C° 0 mm 1 mps 757 mmHg 82%
    23:00 +10°C° 0 mm 1 mps 757 mmHg 83%

    25 April, Thursday

    Time Temperature Precipitation Wind Pressure Humidity
    00:00 +9°C° 0 mm 1 mps 757 mmHg 84%
    01:00 +9°C° 0 mm 1 mps 757 mmHg 86%
    02:00 +9°C° 0 mm 1 mps 757 mmHg 86%
    03:00 +8°C° 0 mm 1 mps 757 mmHg 86%
    04:00 +8°C° 0 mm 1 mps 757 mmHg 86%
    05:00 +9°C° 0 mm 1 mps 756 mmHg 80%
    06:00 +10°C° 0 mm 1 mps 756 mmHg 73%
    07:00 +11°C° 0 mm 1 mps 756 mmHg 67%
    08:00 +13°C° 0 mm 1 mps 755 mmHg 61%
    09:00 +15°C° 0 mm 2 mps 755 mmHg 55%
    10:00 +17°C° 0 mm 2 mps 755 mmHg 48%
    11:00 +17°C° 0 mm 2 mps 754 mmHg 47%
    12:00 +18°C° 0 mm 3 mps 754 mmHg 46%
    13:00 +18°C° 0 mm 3 mps 754 mmHg 45%
    14:00 +18°C° 0 mm 3 mps 753 mmHg 46%
    15:00 +18°C° 0 mm 3 mps 753 mmHg 48%
    16:00 +18°C° 0 mm 3 mps 752 mmHg 49%
    17:00 +16°C° 0 mm 2 mps 752 mmHg 56%
    18:00 +14°C° 0 mm 2 mps 752 mmHg 64%
    19:00 +12°C° 0 mm 1 mps 752 mmHg 71%
    20:00 +11°C° 0 mm 1 mps 753 mmHg 74%
    21:00 +10°C° 0 mm 1 mps 753 mmHg 77%
    22:00 +9°C° 0 mm 1 mps 753 mmHg 80%
    23:00 +9°C° 0 mm 1 mps 753 mmHg 80%
    Show more